Overview Statistics Trail Chart Weather Telemetry Raw packets
 

This is the latest recevied weather packets stored in our database for station/object K9MWD. If no packets are shown the sender has not sent any weather packets the latest 10 day(s).

<< 53 54 55 56 57 58 59 >>
Time Temp. Humidity Pressure Rain* Wind** Luminosity Snow
1788277158 33.33° C 54% 1017.6 hPa 0 mm - 616 W/m² -
1788276858 32.22° C 54% 1017.7 hPa 0 mm - 598 W/m² -
1788276552 32.22° C 56% 1017.4 hPa 0 mm - 585 W/m² -
1788276247 32.78° C 55% 1017.5 hPa 0 mm - 570 W/m² -
1788275947 32.78° C 56% 1017.6 hPa 0 mm - 553 W/m² -
1788275647 32.78° C 56% 1017.7 hPa 0 mm - 537 W/m² -
1788275346 32.22° C 57% 1017.4 hPa 0 mm - 520 W/m² -
1788275044 31.67° C 58% 1017.4 hPa 0 mm - 504 W/m² -
1788274742 31.11° C 60% 1017.6 hPa 0 mm - 485 W/m² -
1788274436 31.67° C 59% 1017.6 hPa 0 mm - 467 W/m² -
1788274131 31.67° C 60% 1017.6 hPa 0 mm - 451 W/m² -
1788273827 31.67° C 60% 1017.8 hPa 0 mm - 431 W/m² -
1788273523 31.11° C 62% 1017.8 hPa 0 mm - 415 W/m² -
1788273218 30.56° C 63% 1017.8 hPa 0 mm - 396 W/m² -
1788272915 30.56° C 65% 1017.8 hPa 0 mm - 377 W/m² -
1788272613 30.56° C 63% 1017.7 hPa 0 mm - 359 W/m² -
1788272314 30° C 66% 1017.7 hPa 0 mm - 340 W/m² -
1788272009 30° C 67% 1017.7 hPa 0 mm - 320 W/m² -
1788271708 30° C 67% 1017.7 hPa 0 mm - 303 W/m² -
1788271406 30° C 67% 1017.7 hPa 0 mm - 284 W/m² -
1788271101 29.44° C 68% 1017.8 hPa 0 mm - 266 W/m² -
1788270796 29.44° C 69% 1017.7 hPa 0 mm - 248 W/m² -
1788270493 29.44° C 69% 1017.7 hPa 0 mm - 230 W/m² -
1788270187 29.44° C 70% 1017.7 hPa 0 mm - 104 W/m² -
1788269887 28.89° C 70% 1017.7 hPa 0 mm - 194 W/m² -

* Rain latest hour (hover to see other rain measurements)
** Current wind speed in m/s (hover to see current wind gust speed)